Cosmos 2233 Rocket - Orbit

View from above orbital plane
View from above orbital plane
View from above satellite
View from above satellite

Ground track
Ground track

The orbit data is extracted from the following two-line orbital elements,

1 22488U 93008B   13142.45102584  .00000100  00000-0  84194-4 0  6251
2 22488 082.9427 104.7101 0026731 073.0015 076.4961 13.77578215 19556
Epoch (UTC): 22 May 2013 10:49:28
Eccentricity: 0.0026731
inclination: 82.9427°
perigee height: 953 km
apogee height: 992 km
right ascension of ascending node: 104.7101°
argument of perigee: 73.0015°
revolutions per day: 13.77578215
mean anomaly at epoch: 76.4961°
orbit number at epoch: 1955

The dashed part of the orbit path shows where the satellite is in the earth's shadow,  

Developed and maintained by Chris Peat, Heavens-Above GmbH. Please read the updated FAQ before sending e-mail. Imprint. DLR